Time,TemperatureF,DewpointF,PressureIn,WindDirection,WindDirectionDegrees,WindSpeedMPH,WindSpeedGustMPH,Humidity,HourlyPrecipIn,Conditions,Clouds,dailyrainin,SoftwareType,DateUTC
2013-03-23 00:02:00,25.0,19.0,30.04,NW,306,0.0,1.0,78,0.00,,,0.00,,2013-03-23 04:02:00,
2013-03-23 00:12:00,25.0,19.0,30.04,NW,306,0.0,1.0,78,0.00,,,0.00,,2013-03-23 04:12:00,
2013-03-23 00:23:00,25.0,19.0,30.04,NW,306,0.0,1.0,79,0.00,,,0.00,,2013-03-23 04:23:00,
2013-03-23 00:32:00,24.0,18.0,30.03,NW,306,0.0,1.0,79,0.00,,,0.00,,2013-03-23 04:32:00,
2013-03-23 00:43:00,24.0,18.0,30.03,NW,306,0.0,1.0,79,0.00,,,0.00,,2013-03-23 04:43:00,
2013-03-23 00:53:00,24.0,19.0,30.03,NW,306,0.0,0.0,81,0.00,,,0.00,,2013-03-23 04:53:00,
2013-03-23 01:02:00,24.0,19.0,30.03,NW,306,0.0,1.0,81,0.00,,,0.00,,2013-03-23 05:02:00,
2013-03-23 01:12:00,24.0,19.0,30.03,NW,306,0.0,1.0,81,0.00,,,0.00,,2013-03-23 05:12:00,
2013-03-23 01:22:00,24.0,19.0,30.03,NW,306,0.0,0.0,82,0.00,,,0.00,,2013-03-23 05:22:00,
2013-03-23 01:32:00,23.0,19.0,30.03,NW,306,0.0,0.0,83,0.00,,,0.00,,2013-03-23 05:32:00,
2013-03-23 01:42:00,23.0,19.0,30.03,NW,306,0.0,0.0,83,0.00,,,0.00,,2013-03-23 05:42:00,
2013-03-23 01:53:00,23.0,19.0,30.03,NW,306,0.0,1.0,84,0.00,,,0.00,,2013-03-23 05:53:00,
2013-03-23 02:02:00,23.0,19.0,30.03,NW,306,0.0,1.0,84,0.00,,,0.00,,2013-03-23 06:02:00,
2013-03-23 02:12:00,23.0,19.0,30.03,NW,306,0.0,1.0,84,0.00,,,0.00,,2013-03-23 06:12:00,
2013-03-23 02:22:00,23.0,19.0,30.03,NW,306,0.0,0.0,85,0.00,,,0.00,,2013-03-23 06:22:00,
2013-03-23 02:32:00,23.0,19.0,30.03,NW,306,0.0,0.0,84,0.00,,,0.00,,2013-03-23 06:32:00,
2013-03-23 02:42:00,23.0,19.0,30.03,NW,306,0.0,0.0,84,0.00,,,0.00,,2013-03-23 06:42:00,
2013-03-23 02:52:00,22.0,18.0,30.02,NW,306,0.0,0.0,85,0.00,,,0.00,,2013-03-23 06:52:00,
2013-03-23 03:02:00,22.0,18.0,30.02,NW,306,0.0,0.0,86,0.00,,,0.00,,2013-03-23 07:02:00,
2013-03-23 03:12:00,22.0,18.0,30.02,NW,306,0.0,0.0,86,0.00,,,0.00,,2013-03-23 07:12:00,
2013-03-23 03:22:00,22.0,18.0,30.02,NW,306,0.0,1.0,86,0.00,,,0.00,,2013-03-23 07:22:00,
2013-03-23 03:32:00,22.0,19.0,30.02,NW,306,0.0,1.0,87,0.00,,,0.00,,2013-03-23 07:32:00,
2013-03-23 03:42:00,22.0,19.0,30.02,NW,306,0.0,1.0,87,0.00,,,0.00,,2013-03-23 07:42:00,
2013-03-23 03:52:00,22.0,19.0,30.01,NW,306,0.0,0.0,87,0.00,,,0.00,,2013-03-23 07:52:00,
2013-03-23 04:02:00,22.0,19.0,30.01,NW,306,0.0,0.0,88,0.00,,,0.00,,2013-03-23 08:02:00,
2013-03-23 04:13:00,22.0,19.0,30.01,NW,306,0.0,0.0,88,0.00,,,0.00,,2013-03-23 08:13:00,
2013-03-23 04:22:00,21.0,18.0,30.01,NW,306,0.0,0.0,88,0.00,,,0.00,,2013-03-23 08:22:00,
2013-03-23 04:32:00,21.0,18.0,30.01,NW,306,0.0,2.0,88,0.00,,,0.00,,2013-03-23 08:32:00,
2013-03-23 04:42:00,21.0,18.0,30.01,NW,306,0.0,2.0,88,0.00,,,0.00,,2013-03-23 08:42:00,
2013-03-23 04:52:00,21.0,18.0,30.01,NW,306,0.0,1.0,88,0.00,,,0.00,,2013-03-23 08:52:00,
2013-03-23 05:02:00,21.0,18.0,30.00,NW,306,0.0,0.0,89,0.00,,,0.00,,2013-03-23 09:02:00,
2013-03-23 05:12:00,21.0,18.0,30.00,NW,306,0.0,0.0,89,0.00,,,0.00,,2013-03-23 09:12:00,
2013-03-23 05:22:00,21.0,18.0,30.00,NW,306,0.0,0.0,89,0.00,,,0.00,,2013-03-23 09:22:00,
2013-03-23 05:33:00,20.0,17.0,30.00,NW,306,0.0,0.0,89,0.00,,,0.00,,2013-03-23 09:33:00,
2013-03-23 05:43:00,20.0,17.0,30.00,NW,306,0.0,0.0,89,0.00,,,0.00,,2013-03-23 09:43:00,
2013-03-23 05:53:00,21.0,19.0,30.00,NW,306,0.0,0.0,90,0.00,,,0.00,,2013-03-23 09:53:00,
2013-03-23 06:03:00,20.0,18.0,30.01,NW,306,0.0,1.0,90,0.00,,,0.00,,2013-03-23 10:03:00,
2013-03-23 06:13:00,20.0,18.0,30.01,NW,306,0.0,1.0,90,0.00,,,0.00,,2013-03-23 10:13:00,
2013-03-23 06:23:00,21.0,19.0,30.01,NW,306,0.0,1.0,90,0.00,,,0.00,,2013-03-23 10:23:00,
2013-03-23 06:34:00,20.0,18.0,30.02,NW,306,0.0,0.0,90,0.00,,,0.00,,2013-03-23 10:34:00,
2013-03-23 06:42:00,20.0,18.0,30.02,NW,306,0.0,0.0,90,0.00,,,0.00,,2013-03-23 10:42:00,
2013-03-23 06:52:00,20.0,18.0,30.02,NW,306,0.0,0.0,90,0.00,,,0.00,,2013-03-23 10:52:00,
2013-03-23 07:03:00,20.0,18.0,30.03,NW,306,0.0,0.0,91,0.00,,,0.00,,2013-03-23 11:03:00,
2013-03-23 07:12:00,20.0,18.0,30.03,NW,306,0.0,0.0,91,0.00,,,0.00,,2013-03-23 11:12:00,
2013-03-23 07:22:00,20.0,18.0,30.03,NW,306,0.0,0.0,90,0.00,,,0.00,,2013-03-23 11:22:00,
2013-03-23 07:32:00,19.0,17.0,30.03,NW,306,0.0,0.0,90,0.00,,,0.00,,2013-03-23 11:32:00,
2013-03-23 07:42:00,19.0,17.0,30.03,NW,306,0.0,0.0,90,0.00,,,0.00,,2013-03-23 11:42:00,
2013-03-23 07:52:00,19.0,17.0,30.03,NW,306,0.0,0.0,90,0.00,,,0.00,,2013-03-23 11:52:00,
2013-03-23 08:02:00,21.0,19.0,30.03,NW,306,0.0,2.0,91,0.00,,,0.00,,2013-03-23 12:02:00,
2013-03-23 08:13:00,21.0,19.0,30.03,NW,306,0.0,2.0,91,0.00,,,0.00,,2013-03-23 12:13:00,
2013-03-23 08:22:00,21.0,19.0,30.03,NW,306,0.0,0.0,91,0.00,,,0.00,,2013-03-23 12:22:00,
2013-03-23 08:33:00,22.0,20.0,30.03,NW,306,0.0,0.0,91,0.00,,,0.00,,2013-03-23 12:33:00,
2013-03-23 08:42:00,22.0,20.0,30.03,NW,306,0.0,0.0,91,0.00,,,0.00,,2013-03-23 12:42:00,
2013-03-23 08:53:00,24.0,22.0,30.04,NW,306,0.0,0.0,91,0.00,,,0.00,,2013-03-23 12:53:00,
2013-03-23 09:03:00,25.0,22.0,30.04,NW,306,0.0,1.0,90,0.00,,,0.00,,2013-03-23 13:03:00,
2013-03-23 09:12:00,25.0,22.0,30.04,NW,306,0.0,1.0,90,0.00,,,0.00,,2013-03-23 13:12:00,
2013-03-23 09:23:00,26.0,23.0,30.05,NW,306,0.0,2.0,88,0.00,,,0.00,,2013-03-23 13:23:00,
2013-03-23 09:33:00,27.0,23.0,30.05,SE,140,1.0,2.0,86,0.00,,,0.00,,2013-03-23 13:33:00,
2013-03-23 09:43:00,27.0,23.0,30.05,SE,140,1.0,2.0,86,0.00,,,0.00,,2013-03-23 13:43:00,
2013-03-23 09:53:00,29.0,25.0,30.05,South,169,0.0,2.0,83,0.00,,,0.00,,2013-03-23 13:53:00,
2013-03-23 10:03:00,32.0,25.0,30.05,SW,225,1.0,4.0,76,0.00,,,0.00,,2013-03-23 14:03:00,
2013-03-23 10:12:00,32.0,25.0,30.05,SW,225,1.0,4.0,76,0.00,,,0.00,,2013-03-23 14:12:00,
2013-03-23 10:22:00,35.0,26.0,30.05,NW,321,2.0,5.0,70,0.00,,,0.00,,2013-03-23 14:22:00,
2013-03-23 10:32:00,35.0,25.0,30.05,SW,227,1.0,4.0,66,0.00,,,0.00,,2013-03-23 14:32:00,
2013-03-23 10:43:00,35.0,25.0,30.05,SW,227,1.0,4.0,66,0.00,,,0.00,,2013-03-23 14:43:00,
2013-03-23 10:53:00,36.0,25.0,30.05,SSW,202,1.0,3.0,64,0.00,,,0.00,,2013-03-23 14:53:00,
2013-03-23 11:03:00,38.0,27.0,30.05,South,169,0.0,5.0,63,0.00,,,0.00,,2013-03-23 15:03:00,
2013-03-23 11:12:00,38.0,27.0,30.05,South,169,0.0,5.0,63,0.00,,,0.00,,2013-03-23 15:12:00,
2013-03-23 11:22:00,38.0,27.0,30.05,East,82,0.0,5.0,63,0.00,,,0.00,,2013-03-23 15:22:00,
2013-03-23 11:33:00,40.0,26.0,30.04,SSW,200,0.0,6.0,58,0.00,,,0.00,,2013-03-23 15:33:00,
2013-03-23 11:43:00,40.0,26.0,30.04,SSW,200,0.0,6.0,58,0.00,,,0.00,,2013-03-23 15:43:00,
2013-03-23 11:53:00,38.0,24.0,30.04,North,9,3.0,7.0,56,0.00,,,0.00,,2013-03-23 15:53:00,
2013-03-23 12:03:00,41.0,25.0,30.04,West,271,6.0,10.0,52,0.00,,,0.00,,2013-03-23 16:03:00,
2013-03-23 12:13:00,41.0,25.0,30.04,West,271,6.0,10.0,52,0.00,,,0.00,,2013-03-23 16:13:00,
2013-03-23 12:23:00,41.0,23.0,30.04,WNW,300,2.0,7.0,48,0.00,,,0.00,,2013-03-23 16:23:00,
2013-03-23 12:33:00,41.0,23.0,30.04,WNW,296,4.0,9.0,49,0.00,,,0.00,,2013-03-23 16:33:00,
2013-03-23 12:43:00,41.0,23.0,30.04,WNW,296,4.0,9.0,49,0.00,,,0.00,,2013-03-23 16:43:00,
2013-03-23 12:53:00,42.0,26.0,30.03,WNW,296,3.0,10.0,53,0.00,,,0.00,,2013-03-23 16:53:00,
2013-03-23 13:02:00,41.0,23.0,30.03,West,278,7.0,10.0,48,0.00,,,0.00,,2013-03-23 17:02:00,
2013-03-23 13:12:00,43.0,25.0,30.03,WNW,297,5.0,8.0,49,0.00,,,0.00,,2013-03-23 17:12:00,
2013-03-23 13:23:00,43.0,25.0,30.03,WNW,297,5.0,8.0,49,0.00,,,0.00,,2013-03-23 17:23:00,
2013-03-23 13:33:00,43.0,24.0,30.03,WSW,240,6.0,11.0,46,0.00,,,0.00,,2013-03-23 17:33:00,
2013-03-23 13:42:00,43.0,24.0,30.03,WSW,240,6.0,11.0,46,0.00,,,0.00,,2013-03-23 17:42:00,
2013-03-23 13:53:00,44.0,25.0,30.02,WSW,257,4.0,8.0,46,0.00,,,0.00,,2013-03-23 17:53:00,
2013-03-23 14:03:00,44.0,26.0,30.01,NW,323,1.0,8.0,48,0.00,,,0.00,,2013-03-23 18:03:00,
2013-03-23 14:12:00,44.0,26.0,30.01,NW,323,1.0,8.0,48,0.00,,,0.00,,2013-03-23 18:12:00,
2013-03-23 14:22:00,45.0,23.0,30.01,NW,311,6.0,11.0,41,0.00,,,0.00,,2013-03-23 18:22:00,
2013-03-23 14:32:00,45.0,23.0,30.01,SW,235,6.0,14.0,41,0.00,,,0.00,,2013-03-23 18:32:00,
2013-03-23 14:42:00,45.0,23.0,30.01,SW,235,6.0,14.0,41,0.00,,,0.00,,2013-03-23 18:42:00,
2013-03-23 14:53:00,45.0,24.0,30.01,NW,318,5.0,11.0,43,0.00,,,0.00,,2013-03-23 18:53:00,
2013-03-23 15:03:00,46.0,25.0,30.01,SW,233,5.0,11.0,43,0.00,,,0.00,,2013-03-23 19:03:00,
2013-03-23 15:13:00,46.0,25.0,30.01,SW,233,5.0,11.0,43,0.00,,,0.00,,2013-03-23 19:13:00,
2013-03-23 15:23:00,46.0,25.0,30.00,NNW,340,3.0,11.0,43,0.00,,,0.00,,2013-03-23 19:23:00,
2013-03-23 15:32:00,48.0,25.0,30.00,North,5,1.0,5.0,41,0.00,,,0.00,,2013-03-23 19:32:00,
2013-03-23 15:42:00,48.0,25.0,30.00,North,5,1.0,5.0,41,0.00,,,0.00,,2013-03-23 19:42:00,
2013-03-23 15:53:00,47.0,26.0,29.99,North,360,3.0,11.0,44,0.00,,,0.00,,2013-03-23 19:53:00,
2013-03-23 16:03:00,48.0,23.0,29.99,WSW,250,6.0,12.0,37,0.00,,,0.00,,2013-03-23 20:03:00,
2013-03-23 16:13:00,48.0,23.0,29.99,WSW,250,6.0,12.0,37,0.00,,,0.00,,2013-03-23 20:13:00,
2013-03-23 16:22:00,47.0,22.0,29.99,WNW,289,7.0,13.0,37,0.00,,,0.00,,2013-03-23 20:22:00,
2013-03-23 16:32:00,47.0,23.0,29.99,SW,223,5.0,12.0,38,0.00,,,0.00,,2013-03-23 20:32:00,
2013-03-23 16:42:00,47.0,23.0,29.99,SW,223,5.0,12.0,38,0.00,,,0.00,,2013-03-23 20:42:00,
2013-03-23 16:53:00,48.0,24.0,29.99,NNE,15,3.0,8.0,38,0.00,,,0.00,,2013-03-23 20:53:00,
2013-03-23 17:02:00,48.0,22.0,29.99,West,277,3.0,12.0,36,0.00,,,0.00,,2013-03-23 21:02:00,
2013-03-23 17:12:00,48.0,22.0,29.99,West,277,3.0,12.0,36,0.00,,,0.00,,2013-03-23 21:12:00,
2013-03-23 17:22:00,47.0,23.0,30.00,West,270,3.0,10.0,39,0.00,,,0.00,,2013-03-23 21:22:00,
2013-03-23 17:33:00,47.0,21.0,30.00,West,271,5.0,9.0,36,0.00,,,0.00,,2013-03-23 21:33:00,
2013-03-23 17:43:00,47.0,21.0,30.00,West,271,5.0,9.0,36,0.00,,,0.00,,2013-03-23 21:43:00,
2013-03-23 17:54:00,47.0,23.0,29.99,North,360,2.0,9.0,38,0.00,,,0.00,,2013-03-23 21:54:00,
2013-03-23 18:03:00,46.0,22.0,29.99,NW,314,2.0,10.0,38,0.00,,,0.00,,2013-03-23 22:03:00,
2013-03-23 18:13:00,46.0,22.0,29.99,NW,314,2.0,10.0,38,0.00,,,0.00,,2013-03-23 22:13:00,
2013-03-23 18:23:00,46.0,22.0,30.00,WNW,302,3.0,9.0,39,0.00,,,0.00,,2013-03-23 22:23:00,
2013-03-23 18:33:00,46.0,23.0,30.00,NW,305,4.0,7.0,40,0.00,,,0.00,,2013-03-23 22:33:00,
2013-03-23 18:42:00,46.0,23.0,30.00,NW,305,4.0,7.0,40,0.00,,,0.00,,2013-03-23 22:42:00,
2013-03-23 18:53:00,45.0,23.0,30.00,NNW,340,0.0,7.0,41,0.00,,,0.00,,2013-03-23 22:53:00,
2013-03-23 19:02:00,44.0,23.0,30.00,North,9,1.0,3.0,43,0.00,,,0.00,,2013-03-23 23:02:00,
2013-03-23 19:13:00,44.0,23.0,30.00,North,9,1.0,3.0,43,0.00,,,0.00,,2013-03-23 23:13:00,
2013-03-23 19:23:00,43.0,23.0,29.99,North,5,0.0,2.0,44,0.00,,,0.00,,2013-03-23 23:23:00,
2013-03-23 19:33:00,43.0,23.0,29.99,North,5,0.0,2.0,45,0.00,,,0.00,,2013-03-23 23:33:00,
2013-03-23 19:43:00,43.0,23.0,29.99,North,5,0.0,2.0,45,0.00,,,0.00,,2013-03-23 23:43:00,
2013-03-23 19:52:00,43.0,23.0,29.99,North,5,0.0,2.0,45,0.00,,,0.00,,2013-03-23 23:52:00,
2013-03-23 20:02:00,43.0,23.0,29.99,North,5,0.0,2.0,45,0.00,,,0.00,,2013-03-24 00:02:00,
2013-03-23 21:02:00,37.0,24.0,30.03,ENE,62,0.0,3.0,59,0.00,,,0.00,,2013-03-24 01:02:00,
2013-03-23 21:13:00,37.0,24.0,30.03,ENE,62,0.0,3.0,59,0.00,,,0.00,,2013-03-24 01:13:00,
2013-03-23 21:22:00,36.0,24.0,30.03,ENE,67,0.0,2.0,61,0.00,,,0.00,,2013-03-24 01:22:00,
2013-03-23 21:33:00,35.0,23.0,30.03,ENE,67,0.0,2.0,62,0.00,,,0.00,,2013-03-24 01:33:00,
2013-03-23 21:42:00,35.0,23.0,30.03,ENE,67,0.0,2.0,62,0.00,,,0.00,,2013-03-24 01:42:00,
2013-03-23 21:53:00,35.0,24.0,30.03,ENE,65,0.0,1.0,63,0.00,,,0.00,,2013-03-24 01:53:00,
2013-03-23 22:03:00,34.0,23.0,30.03,ENE,65,0.0,1.0,64,0.00,,,0.00,,2013-03-24 02:03:00,
2013-03-23 22:12:00,34.0,23.0,30.03,ENE,65,0.0,1.0,64,0.00,,,0.00,,2013-03-24 02:12:00,
2013-03-23 22:22:00,34.0,23.0,30.03,ENE,65,0.0,2.0,65,0.00,,,0.00,,2013-03-24 02:22:00,
2013-03-23 22:32:00,33.0,23.0,30.03,ENE,65,0.0,0.0,66,0.00,,,0.00,,2013-03-24 02:32:00,
2013-03-23 22:42:00,33.0,23.0,30.03,ENE,65,0.0,0.0,66,0.00,,,0.00,,2013-03-24 02:42:00,
2013-03-23 22:52:00,33.0,23.0,30.03,ENE,65,0.0,0.0,66,0.00,,,0.00,,2013-03-24 02:52:00,
2013-03-23 23:02:00,33.0,23.0,30.04,ENE,65,0.0,1.0,66,0.00,,,0.00,,2013-03-24 03:02:00,
2013-03-23 23:12:00,33.0,23.0,30.04,ENE,65,0.0,1.0,66,0.00,,,0.00,,2013-03-24 03:12:00,
2013-03-23 23:23:00,32.0,22.0,30.04,ENE,65,0.0,1.0,67,0.00,,,0.00,,2013-03-24 03:23:00,
2013-03-23 23:33:00,32.0,22.0,30.03,ENE,65,0.0,0.0,67,0.00,,,0.00,,2013-03-24 03:33:00,
2013-03-23 23:42:00,32.0,22.0,30.03,ENE,65,0.0,0.0,67,0.00,,,0.00,,2013-03-24 03:42:00,
2013-03-23 23:53:00,31.0,22.0,30.02,ENE,65,1.0,2.0,69,0.00,,,0.00,,2013-03-24 03:53:00,